Temp
63 63 62 61 61 61 61 62 62 62 62 62 62 62 62 62 61 55 48 58 61 66 70 64 63 62 62 58 58 56 42 38 44 48 53 60 60 63 66 64 62 62 63 68 68
62 62 62 62 62 62 61 61 61 62 61 61 61 61 61 61 54 49 60 67 69 70 63 58 56 58 52 54 53 48 39 44 53 56 53 60 60 62 60 59 59 59 65 66 66
62 62 61 61 61 61 61 61 61 61 61 61 61 61 61 59 47 51 71 73 73 70 66 63 61 58 51 52 52 48 44 51 54 58 59 58 57 62 58 52 59 57 62 64 62
61 61 60 60 60 60 60 60 60 60 60 60 60 60 60 54 38 59 69 72 72 68 63 59 56 50 48 48 53 44 51 53 55 58 57 55 59 55 57 57 62 64 64 63 63
61 60 60 59 59 59 59 59 60 60 60 60 60 60 54 43 43 61 68 66 67 63 58 55 51 50 45 49 51 48 50 54 55 56 56 57 54 54 55 60 64 66 64 62 62
60 60 59 59 59 59 59 59 59 59 59 60 60 60 49 33 56 61 62 61 60 57 59 56 52 55 50 51 49 52 53 53 55 54 55 54 51 53 54 59 60 63 62 61 61
60 59 58 58 58 58 58 58 59 59 59 61 61 58 47 41 56 59 60 57 59 57 53 59 58 52 54 48 56 53 46 49 52 54 52 54 47 49 55 58 61 60 61 60 62
59 58 58 58 58 57 58 58 59 59 61 60 60 56 41 58 57 58 59 56 60 59 55 58 58 50 50 54 50 47 47 38 50 52 54 52 41 54 57 56 55 56 60 62 60
58 58 57 57 57 57 57 58 59 60 58 60 51 50 42 63 52 56 59 53 55 57 57 60 53 48 45 39 39 42 35 38 43 54 50 50 44 53 56 56 55 57 56 60 59
58 57 57 57 56 57 57 58 58 56 53 60 57 42 48 43 51 54 56 56 49 49 47 47 43 38 39 35 29 33 35 39 39 47 50 46 46 51 54 54 54 55 58 57 60
57 56 56 56 56 56 54 45 39 36 41 35 38 38 43 51 54 51 55 50 46 43 32 39 34 29 34 38 39 38 40 40 45 49 47 45 46 50 54 51 49 54 55 58 59
56 56 56 56 56 57 49 41 42 40 31 42 43 43 49 51 42 47 53 39 36 29 35 30 26 37 40 41 38 37 32 33 43 47 45 44 44 50 52 53 55 51 55 57 58
56 55 55 55 55 49 44 44 49 47 29 36 46 44 44 46 40 42 45 39 33 30 31 25 29 36 35 34 31 34 31 33 33 40 47 43 39 45 51 53 56 57 55 57 59
55 55 55 55 46 45 41 49 49 46 20 32 38 42 46 44 36 48 45 39 32 26 29 28 35 35 34 30 33 24 38 37 36 32 28 41 28 38 46 49 52 54 56 57 55
55 55 55 55 41 39 45 49 48 40 4 35 37 51 45 37 38 40 44 38 26 26 24 22 27 28 28 28 35 28 38 35 33 31 30 32 29 33 46 43 49 53 53 53 57
54 54 55 48 42 45 48 47 40 18 4 28 36 34 33 37 37 40 36 39 38 29 30 27 34 31 29 35 36 37 33 35 34 31 23 31 30 33 36 44 49 53 55 56 55
54 54 52 51 38 46 45 36 16 11 30 24 26 31 30 29 31 32 29 17 20 12 15 22 24 31 34 24 33 32 27 19 17 18 19 33 28 31 42 48 51 52 55 57 59
54 53 50 51 46 44 38 26 12 23 22 31 29 29 25 28 27 28 25 17 23 15 13 10 11 26 34 26 23 24 23 21 13 16 20 34 25 34 45 49 47 54 54 58 59
53 41 41 44 48 42 29 15 18 22 28 26 27 22 21 26 24 22 19 11 18 18 11 8 15 30 33 33 28 26 22 34 19 19 18 28 32 38 44 47 50 48 52 51 57
41 36 39 47 45 36 22 24 24 28 32 30 17 23 16 20 19 17 15 17 19 21 20 17 11 27 29 32 32 27 30 24 25 17 18 23 26 30 39 44 49 46 45 47 49
35 30 41 45 40 28 13 17 25 34 33 26 22 18 12 13 20 14 10 22 23 27 24 13 10 19 26 20 18 23 18 22 29 25 14 15 22 38 43 44 42 43 46 48 49
31 23 42 43 26 25 17 26 34 30 34 30 28 19 16 21 18 17 16 18 31 26 13 18 11 11 17 26 27 25 20 19 17 15 28 25 26 40 43 45 47 45 47 49 50
23 27 41 38 14 18 25 27 30 29 29 28 25 29 28 21 16 21 23 31 32 28 16 24 11 9 12 20 26 18 20 20 21 24 26 23 26 42 42 42 43 44 45 47 50
25 18 29 30 28 14 14 22 24 32 30 31 27 29 25 21 24 17 22 29 31 29 36 29 16 12 8 12 19 15 19 21 23 20 24 26 29 34 36 39 42 42 43 46 48
25 21 26 16 24 23 20 18 22 23 29 29 25 26 17 14 19 18 22 24 28 32 27 18 11 19 21 23 22 19 20 22 21 24 24 26 24 26 31 35 37 41 47 48 50
20 21 24 21 23 20 23 18 22 23 21 22 22 24 24 12 19 16 21 21 20 25 22 23 13 19 15 23 25 18 24 23 23 26 27 27 24 29 34 35 36 38 41 44 48
32 32 28 23 20 16 20 22 21 27 27 30 26 22 22 25 28 29 28 27 25 22 21 17 16 15 11 21 19 16 19 21 21 22 24 18 23 29 28 31 34 35 38 40 43
MSLP
1022.67 1022.40 1022.14 1021.77 1021.38 1021.04 1020.65 1020.06 1019.62 1019.21 1018.77 1018.29 1017.89 1017.38 1016.85 1016.26 1015.39 1015.04 1014.33 1012.47 1012.12 1011.76 1011.54 1012.10 1012.05 1012.24 1012.65 1012.57 1012.47 1012.43 1012.71 1011.76 1010.95 1010.01 1008.35 1007.12 1006.88 1005.85 1005.54 1005.96 1006.32 1006.75 1007.06 1007.32 1008.30
1022.72 1022.33 1021.89 1021.48 1021.06 1020.67 1020.39 1020.02 1019.50 1018.94 1018.53 1018.14 1017.73 1017.28 1016.74 1016.18 1015.19 1013.76 1011.87 1011.48 1011.25 1011.33 1011.49 1011.81 1012.16 1012.35 1012.44 1012.18 1012.29 1012.31 1011.65 1010.39 1009.12 1008.57 1007.88 1007.20 1006.85 1006.10 1005.93 1006.06 1006.81 1007.52 1007.80 1008.00 1008.78
1022.66 1022.38 1022.04 1021.59 1021.08 1020.57 1020.16 1019.61 1019.09 1018.73 1018.26 1017.80 1017.43 1017.11 1016.75 1016.33 1014.95 1011.83 1010.64 1010.52 1010.12 1010.55 1010.77 1011.33 1011.82 1012.09 1012.16 1011.85 1011.70 1011.08 1009.25 1008.94 1008.09 1007.63 1007.66 1007.26 1006.72 1006.23 1006.19 1006.51 1006.31 1007.29 1008.07 1008.54 1008.77
1022.88 1022.49 1022.05 1021.54 1021.10 1020.58 1020.00 1019.46 1018.81 1018.20 1017.73 1017.31 1017.10 1016.89 1016.70 1016.74 1014.77 1010.84 1010.75 1010.23 1009.92 1010.23 1010.88 1011.27 1011.56 1011.80 1011.52 1010.72 1010.35 1009.90 1008.66 1008.82 1007.96 1007.45 1007.27 1006.95 1006.52 1006.30 1006.23 1006.19 1005.99 1006.55 1007.45 1008.14 1008.60
1022.94 1022.55 1022.08 1021.60 1021.00 1020.44 1019.86 1019.28 1018.56 1017.93 1017.38 1016.99 1016.74 1016.52 1016.63 1016.34 1013.59 1011.63 1011.02 1010.85 1010.26 1010.26 1010.51 1010.97 1011.19 1011.27 1010.32 1009.52 1010.04 1008.85 1008.43 1007.91 1007.85 1007.59 1006.99 1006.85 1006.41 1006.20 1005.86 1006.04 1006.15 1006.59 1007.30 1007.86 1008.06
1022.97 1022.56 1022.10 1021.55 1020.91 1020.32 1019.70 1019.06 1018.24 1017.45 1016.84 1016.40 1015.86 1015.93 1016.19 1015.85 1012.86 1011.88 1011.74 1011.57 1011.11 1011.06 1010.57 1010.80 1010.83 1010.70 1009.91 1009.20 1008.72 1007.38 1008.03 1007.47 1007.17 1006.82 1006.83 1006.85 1006.65 1006.62 1005.44 1005.85 1006.29 1006.52 1006.81 1007.45 1007.85
1022.94 1022.48 1022.04 1021.43 1020.72 1019.98 1019.11 1018.17 1017.30 1016.59 1015.93 1015.18 1015.07 1014.98 1015.14 1014.02 1012.50 1012.34 1012.06 1011.91 1011.54 1010.99 1010.75 1010.58 1010.16 1010.54 1009.12 1009.37 1007.95 1007.55 1007.49 1006.87 1005.80 1005.81 1006.14 1006.75 1006.20 1004.17 1005.61 1005.56 1005.89 1006.19 1006.41 1006.87 1007.36
1022.93 1022.44 1021.95 1021.35 1020.60 1019.87 1018.96 1017.75 1016.44 1015.78 1015.06 1014.65 1014.65 1014.51 1013.99 1012.52 1012.96 1012.57 1011.83 1011.30 1010.92 1010.83 1010.64 1010.42 1010.16 1010.06 1009.35 1008.76 1007.54 1007.37 1007.54 1006.17 1002.29 1004.91 1004.86 1006.42 1002.90 1004.66 1005.48 1005.98 1005.76 1006.05 1006.24 1006.20 1006.64
1023.06 1022.51 1022.01 1021.34 1020.54 1019.75 1018.66 1017.34 1015.73 1014.82 1015.03 1014.11 1014.39 1014.37 1013.24 1012.08 1012.97 1012.85 1012.11 1011.48 1011.02 1010.55 1010.16 1010.00 1009.93 1009.84 1010.11 1009.15 1007.89 1007.06 1004.57 1002.44 1002.17 1003.80 1004.53 1005.02 1002.41 1003.92 1004.51 1005.06 1005.16 1005.39 1005.76 1005.91 1006.02
1023.11 1022.55 1021.95 1021.21 1020.39 1019.50 1018.30 1016.87 1015.45 1014.78 1015.71 1013.76 1014.09 1015.01 1013.65 1014.26 1013.66 1012.99 1012.13 1011.54 1011.34 1010.60 1010.24 1009.96 1009.81 1009.70 1009.31 1008.28 1005.39 1004.60 1004.64 1003.89 1003.58 1004.16 1004.53 1004.31 1002.42 1003.27 1003.78 1004.14 1004.18 1004.62 1004.86 1005.18 1005.25
1023.08 1022.59 1021.76 1020.97 1020.23 1019.33 1018.34 1017.16 1017.37 1016.97 1018.09 1017.07 1016.44 1016.86 1015.80 1014.71 1013.71 1013.22 1011.92 1011.74 1012.03 1011.91 1011.65 1010.91 1010.37 1008.56 1007.40 1007.26 1007.22 1006.20 1005.27 1004.03 1003.38 1003.66 1003.77 1003.44 1002.51 1002.83 1003.33 1003.83 1003.86 1003.50 1003.67 1003.99 1004.21
1023.06 1022.49 1021.92 1021.08 1020.12 1019.46 1019.17 1019.22 1019.81 1020.27 1018.15 1017.09 1016.19 1016.03 1015.15 1014.44 1013.78 1013.03 1012.33 1012.89 1012.84 1012.52 1012.25 1011.61 1010.19 1009.10 1008.88 1007.71 1007.12 1006.31 1005.32 1004.11 1003.05 1003.15 1003.58 1003.38 1002.35 1001.57 1002.72 1002.69 1002.42 1002.93 1002.85 1002.94 1003.53
1023.10 1022.45 1021.84 1021.01 1019.95 1019.75 1019.92 1019.94 1019.74 1019.63 1019.48 1017.39 1015.97 1015.36 1014.99 1014.62 1014.14 1013.66 1013.49 1013.57 1013.49 1012.92 1012.70 1012.12 1010.81 1010.35 1009.36 1008.23 1007.26 1006.05 1005.41 1005.01 1004.66 1003.57 1003.07 1002.69 1002.05 1001.06 1001.35 1001.64 1001.93 1001.79 1001.82 1002.14 1002.47
1023.06 1022.37 1021.56 1020.97 1020.57 1020.46 1020.20 1020.02 1019.79 1019.67 1019.56 1017.61 1016.15 1015.47 1015.15 1014.54 1014.38 1014.12 1014.20 1014.44 1014.11 1013.77 1013.10 1011.91 1010.58 1009.94 1009.31 1008.45 1007.61 1006.46 1005.55 1005.16 1004.88 1004.48 1002.25 1002.86 1001.40 1000.26 1000.55 1000.51 1000.81 1000.61 1000.82 1001.06 1001.46
1022.98 1022.40 1021.68 1020.88 1021.27 1020.95 1020.62 1019.87 1019.38 1019.86 1019.79 1017.86 1016.90 1015.69 1015.89 1015.78 1015.50 1014.90 1014.87 1014.46 1014.65 1014.61 1014.59 1012.59 1011.04 1009.92 1009.14 1008.21 1007.25 1006.46 1005.47 1005.32 1004.77 1003.97 1004.01 1002.77 1002.41 999.87 999.39 999.88 999.72 999.51 999.95 1000.18 1000.50
1022.98 1022.16 1021.34 1020.99 1021.11 1020.75 1019.95 1019.35 1019.24 1020.31 1019.59 1018.59 1017.73 1016.78 1016.17 1015.94 1016.03 1015.34 1015.25 1015.22 1015.08 1014.98 1014.17 1012.86 1010.77 1009.74 1008.56 1007.93 1007.21 1005.84 1004.98 1004.81 1004.84 1004.52 1002.49 1002.32 1001.94 999.69 998.84 998.31 998.62 999.14 999.37 999.73 1000.13
1022.75 1021.97 1021.17 1020.90 1021.32 1020.57 1020.07 1020.05 1020.61 1020.78 1020.48 1019.87 1018.78 1018.20 1017.60 1017.24 1016.83 1016.44 1016.27 1016.53 1016.66 1016.22 1014.93 1012.66 1010.93 1009.57 1008.68 1007.88 1005.91 1005.30 1004.12 1004.45 1004.45 1003.14 1001.82 1001.83 1001.71 1000.98 998.26 998.01 997.95 998.34 998.28 998.62 999.02
1022.52 1021.92 1021.23 1020.89 1020.88 1020.69 1020.67 1021.22 1021.59 1021.96 1021.17 1020.44 1019.63 1018.85 1018.52 1018.34 1018.05 1017.74 1017.51 1017.45 1017.17 1017.46 1016.86 1015.22 1011.74 1010.61 1008.97 1008.96 1007.88 1005.59 1004.76 1002.64 1002.50 1002.06 1002.09 1001.43 1000.87 998.85 997.47 997.67 997.66 997.71 997.66 997.61 998.11
1022.48 1022.14 1021.73 1021.52 1020.84 1020.96 1021.79 1022.49 1023.04 1022.90 1022.14 1020.85 1020.02 1019.55 1019.43 1019.21 1019.23 1019.05 1018.63 1018.52 1018.24 1017.88 1017.91 1016.09 1013.33 1011.09 1009.51 1008.61 1007.93 1004.69 1003.00 1001.13 1001.51 1001.12 1001.45 1000.29 999.70 997.90 997.60 997.42 997.49 997.73 997.37 997.31 997.38
1023.40 1023.24 1022.30 1021.27 1020.96 1021.72 1022.83 1023.47 1023.31 1022.75 1021.95 1021.20 1020.81 1020.56 1020.46 1020.16 1020.09 1019.79 1019.27 1018.78 1018.34 1017.82 1017.53 1016.29 1013.50 1011.05 1009.54 1008.14 1006.71 1005.50 1003.93 1002.28 1002.20 1001.36 1000.54 999.26 998.41 997.65 997.02 996.77 996.95 997.96 998.30 997.99 997.79
1023.86 1023.79 1022.16 1021.51 1021.34 1022.57 1023.84 1024.10 1023.21 1022.36 1021.98 1021.44 1021.04 1020.93 1021.07 1020.95 1020.49 1020.08 1019.60 1018.66 1017.96 1017.22 1016.79 1016.07 1015.22 1011.85 1010.30 1009.34 1008.75 1006.16 1005.87 1004.38 1002.25 1001.62 1000.01 999.41 998.62 996.79 996.13 996.48 997.78 998.31 998.28 998.29 998.40
1024.83 1024.47 1022.28 1022.09 1023.23 1023.94 1024.57 1024.12 1023.33 1022.46 1021.95 1021.53 1021.02 1021.25 1021.22 1020.96 1020.73 1020.02 1019.43 1018.49 1017.57 1017.21 1016.63 1016.10 1015.46 1013.23 1011.09 1009.85 1009.20 1008.75 1008.05 1006.90 1005.13 1002.47 1000.75 999.05 999.46 998.20 997.18 997.35 997.54 998.54 998.65 998.69 998.66
1025.55 1024.96 1022.88 1022.86 1024.65 1025.40 1024.99 1024.37 1023.63 1022.80 1022.26 1021.88 1021.60 1021.45 1021.26 1021.00 1020.84 1019.85 1018.96 1017.97 1017.31 1017.10 1016.73 1016.01 1015.64 1014.07 1011.08 1010.11 1009.32 1009.16 1008.28 1007.94 1006.60 1004.17 1001.30 1000.53 1000.07 999.92 998.65 998.80 998.74 999.12 999.40 999.39 999.21
1025.93 1025.96 1025.00 1024.84 1025.52 1026.31 1026.27 1024.96 1023.74 1022.75 1022.34 1022.21 1021.89 1021.54 1021.24 1020.77 1020.33 1019.67 1018.62 1017.62 1017.09 1016.92 1016.21 1015.97 1015.61 1015.56 1014.74 1013.74 1012.47 1010.76 1008.86 1008.31 1006.66 1004.09 1002.42 1001.96 1001.26 1000.83 1001.19 1000.95 1000.62 1000.45 1000.23 999.97 999.84
1026.29 1026.99 1026.70 1026.64 1026.21 1026.27 1026.18 1025.17 1024.13 1023.02 1022.69 1022.29 1021.93 1021.80 1021.64 1020.92 1020.03 1019.34 1018.57 1017.25 1016.48 1016.30 1016.15 1016.28 1015.42 1014.73 1013.59 1013.11 1012.20 1010.80 1008.86 1007.22 1006.53 1005.07 1003.84 1003.99 1003.62 1004.50 1004.16 1003.64 1003.06 1002.22 1001.25 1000.49 1000.22
1026.86 1027.18 1027.02 1026.77 1026.38 1026.15 1025.52 1024.87 1024.10 1023.46 1023.30 1022.57 1022.25 1021.59 1021.12 1021.11 1020.48 1019.38 1018.58 1017.49 1017.11 1016.07 1016.35 1015.89 1015.48 1014.57 1012.79 1011.89 1011.53 1010.85 1008.81 1007.32 1007.14 1006.38 1006.03 1005.84 1005.93 1006.48 1006.05 1004.69 1003.88 1003.67 1002.93 1001.81 1001.12
1026.61 1026.64 1026.66 1026.24 1026.35 1026.38 1025.75 1025.08 1024.57 1023.67 1022.88 1022.61 1022.04 1021.43 1020.72 1020.22 1019.66 1018.61 1017.72 1017.12 1017.01 1016.92 1016.36 1016.26 1015.83 1015.32 1013.30 1012.00 1011.23 1011.08 1010.75 1010.29 1009.68 1009.13 1008.74 1008.83 1009.71 1008.51 1006.94 1006.65 1006.31 1005.52 1004.56 1003.74 1002.50
Wind_Speed
18 18 19 19 20 20 21 22 22 22 23 23 23 24 24 24 26 14 12 13 11 28 13 8 6 8 7 6 5 1 2 7 8 11 13 6 7 3 5 5 3 3 4 9 15
17 18 20 21 21 21 22 23 24 23 23 24 24 23 22 24 20 17 14 18 20 20 12 15 12 11 5 9 5 6 6 12 8 14 6 12 9 7 4 6 3 6 10 13 11
19 22 22 23 23 23 23 24 24 25 25 24 23 22 21 19 10 6 9 15 15 19 11 13 9 13 13 8 12 8 13 9 10 11 8 9 3 6 7 4 8 12 16 14 11
20 22 23 23 23 24 24 25 26 26 25 24 23 20 17 8 8 3 22 18 14 12 7 11 12 9 11 19 15 11 15 14 6 8 4 5 5 4 7 8 5 9 19 16 15
20 22 23 25 25 25 25 25 26 27 27 25 22 19 6 6 13 14 18 20 10 6 11 14 17 16 20 13 17 28 14 15 19 19 13 6 10 8 7 9 8 6 12 17 17
22 22 23 24 26 27 27 27 28 28 26 24 22 13 6 11 6 11 15 15 16 10 13 13 10 15 12 23 23 5 24 27 17 16 12 13 6 4 6 9 7 9 9 17 17
22 22 24 25 27 28 28 30 28 27 27 23 13 8 9 18 5 16 18 11 12 13 10 14 17 19 9 19 21 25 19 13 30 27 16 6 15 32 5 6 18 11 9 12 17
23 24 25 26 27 29 31 30 31 30 25 11 14 5 7 10 2 18 15 8 11 8 7 13 15 14 25 17 20 18 26 25 35 21 24 15 36 20 12 15 15 9 13 11 15
23 25 26 27 28 29 29 31 31 24 20 23 2 4 7 4 17 16 10 15 14 13 14 15 9 15 12 16 20 19 26 37 29 22 8 23 30 21 11 22 25 21 11 13 10
23 24 26 27 29 29 29 29 23 9 18 4 4 6 2 14 16 19 8 15 11 15 11 6 7 12 17 16 29 30 27 24 20 11 16 19 31 11 15 16 24 21 21 14 15
24 24 26 28 29 29 18 5 8 9 14 2 16 6 14 14 13 10 14 8 7 7 7 9 11 19 29 27 23 22 24 22 27 11 13 24 30 24 18 9 12 20 20 20 17
24 25 26 28 30 20 8 6 8 7 10 15 16 7 11 6 12 14 10 6 4 15 13 6 15 18 22 22 23 27 27 21 17 10 20 22 28 27 20 25 21 11 18 19 15
25 26 27 26 24 6 6 7 5 6 3 10 6 0 5 4 7 17 4 4 8 14 10 12 16 23 19 21 21 27 27 24 13 8 17 18 29 25 20 20 22 17 9 13 19
25 26 28 26 7 7 4 11 7 3 3 2 4 3 8 13 11 11 7 7 6 10 17 14 12 14 21 19 18 22 22 24 22 10 15 14 10 25 20 19 18 15 15 15 11
26 27 25 17 4 3 8 9 8 3 6 6 11 7 18 7 10 5 4 5 7 10 4 14 22 21 20 22 21 20 24 18 14 14 13 10 8 5 18 17 21 22 11 9 12
27 27 24 5 4 4 9 12 3 5 5 3 9 13 19 13 12 8 5 3 8 11 13 18 20 17 16 20 22 23 20 19 15 16 15 16 13 14 9 24 20 13 16 15 12
28 26 14 1 3 7 6 5 5 4 8 12 14 16 17 15 16 14 15 5 3 9 20 16 17 2 7 21 13 11 11 9 13 12 12 7 7 10 8 15 17 21 24 20 18
28 21 9 2 4 6 5 6 7 10 6 15 14 16 9 14 12 15 17 6 3 2 7 9 23 16 19 4 11 21 9 7 16 11 10 7 8 10 20 15 3 11 12 20 19
25 5 5 4 5 4 5 5 4 7 13 12 12 7 8 17 6 7 9 3 3 1 5 7 15 25 14 20 11 4 10 14 3 1 5 10 9 6 8 21 14 7 7 8 17
6 4 4 6 4 5 6 7 6 4 14 11 4 7 10 11 8 9 5 5 10 3 2 7 15 9 18 16 8 9 8 7 7 5 8 6 10 7 15 16 16 3 6 6 1
4 4 6 7 4 6 4 4 6 12 13 6 10 7 5 4 9 6 5 10 5 17 4 3 1 18 14 6 12 9 9 7 1 4 3 5 4 6 11 12 14 9 8 9 8
3 4 6 5 5 3 3 6 13 11 9 5 6 0 2 7 6 6 7 4 14 6 8 4 3 13 21 5 7 5 7 7 5 3 2 1 4 9 16 14 17 10 8 7 7
1 3 6 5 4 4 6 7 4 10 8 8 6 9 10 6 6 13 11 14 10 14 7 5 3 13 15 5 3 6 13 12 14 6 4 2 7 6 16 15 10 11 9 7 8
3 4 5 4 3 5 4 6 9 6 6 9 7 7 12 11 11 9 11 10 13 13 22 12 4 3 9 14 15 22 25 19 9 3 5 2 10 14 18 10 10 9 8 9 9
3 2 0 5 6 8 2 4 7 12 3 5 5 11 6 7 12 6 17 21 20 15 5 3 7 15 16 17 18 20 22 17 6 4 4 8 14 16 18 16 14 13 13 10 8
2 2 3 4 5 4 5 5 4 9 1 6 9 14 8 4 6 18 17 19 11 8 8 2 5 14 17 13 11 16 20 27 18 15 13 11 11 18 15 15 21 17 16 14 10
2 3 2 4 3 3 4 4 8 9 7 11 10 8 9 9 12 18 17 15 14 10 14 2 3 7 7 15 17 4 20 17 16 26 17 18 12 18 20 19 15 15 15 14 13
Wind_Direction
3 1 354 350 348 345 342 340 337 335 333 330 330 327 324 324 315 301 262 236 216 234 255 302 195 215 259 236 222 86 255 206 212 205 224 251 223 228 156 133 72 34 135 157 138
0 357 355 351 345 343 339 335 331 332 330 327 327 326 325 325 310 285 247 260 253 247 243 213 208 204 217 204 221 173 207 211 214 228 216 238 236 210 150 147 146 86 94 117 126
2 358 353 347 343 339 335 331 329 328 325 324 324 324 325 332 311 251 17 346 338 229 218 201 217 198 217 219 206 210 232 209 218 238 245 247 273 194 151 204 200 161 153 152 154
358 354 351 346 345 339 336 329 327 323 320 318 317 318 318 329 287 182 345 339 343 188 222 207 228 222 209 216 203 244 227 235 210 243 250 217 186 244 198 207 170 157 165 166 166
358 353 351 345 341 336 332 326 322 319 316 316 315 310 309 255 251 303 348 349 330 197 218 209 218 221 229 210 227 229 234 216 229 250 250 244 234 212 221 229 231 247 159 179 176
354 352 348 345 340 337 333 328 322 316 316 314 305 301 239 252 283 290 337 335 321 332 227 216 234 238 270 233 209 208 229 239 242 229 239 231 242 207 225 206 233 229 219 182 182
351 349 348 341 338 336 332 326 319 317 314 311 318 268 223 246 288 323 325 330 323 294 273 267 231 251 253 256 240 246 264 256 232 230 235 194 251 229 190 184 229 224 230 176 188
348 348 346 341 338 335 332 325 319 315 315 326 309 286 250 244 269 356 329 319 327 309 294 285 266 280 254 269 279 240 238 247 239 218 228 175 255 244 210 227 241 238 226 218 192
350 348 344 340 338 335 331 324 315 318 0 310 243 231 271 355 354 331 310 325 305 301 298 298 251 260 278 257 255 236 234 225 242 217 168 193 244 229 214 213 224 228 229 219 202
350 348 344 340 334 337 331 323 326 26 349 359 81 352 9 329 326 311 291 316 327 303 298 250 236 241 246 225 224 235 232 249 247 219 212 215 243 222 212 211 218 219 223 220 208
351 347 341 341 336 338 343 348 15 355 358 217 285 263 279 292 290 314 319 346 357 0 332 302 249 224 237 251 261 265 252 246 235 215 210 218 234 224 222 219 213 218 215 214 212
348 346 343 338 332 339 2 43 46 240 306 287 273 248 260 301 317 335 6 21 337 322 311 290 248 270 269 262 259 263 270 265 238 195 215 228 241 236 211 222 238 208 217 211 200
347 344 343 341 328 359 349 38 343 351 321 304 290 50 292 328 325 344 20 280 295 304 297 287 283 286 287 279 270 253 252 259 273 238 231 227 241 248 211 208 223 223 200 204 206
347 343 341 342 9 325 356 335 329 6 356 352 29 307 347 324 11 357 349 5 327 301 306 284 261 281 291 283 282 273 257 265 252 272 229 205 246 233 209 206 204 224 213 210 178
343 342 343 345 271 3 294 315 309 85 3 19 9 315 330 2 317 348 17 348 319 307 352 285 289 286 281 264 268 275 251 254 258 257 253 224 247 252 196 214 216 219 211 209 218
340 341 337 340 355 275 317 316 65 54 271 32 355 340 353 354 352 314 2 35 294 300 300 286 280 264 260 284 284 264 260 239 252 248 244 228 240 216 177 206 212 214 229 214 201
339 340 334 20 302 302 321 1 43 40 354 348 342 336 326 0 343 348 336 356 341 335 341 328 324 342 10 338 303 294 186 215 227 215 240 189 234 262 189 186 198 211 225 216 206
337 335 306 36 341 336 12 40 49 8 3 331 332 320 334 353 321 335 334 340 336 89 303 336 331 335 307 323 295 284 266 202 212 210 222 172 230 231 224 236 209 191 211 218 205
339 323 337 313 324 41 47 38 36 342 324 331 320 333 335 334 322 352 321 254 265 321 347 308 300 304 306 317 301 288 210 219 36 0 186 180 209 310 187 219 226 226 193 165 194
327 346 300 291 334 53 61 11 323 303 326 330 311 317 329 323 331 350 344 268 332 296 182 265 295 304 318 314 337 283 308 151 184 209 190 177 172 218 182 186 224 151 89 71 94
23 14 268 324 57 43 92 260 305 330 332 317 323 299 266 319 320 303 253 298 351 320 317 239 276 311 332 342 335 339 27 331 49 198 168 136 232 236 184 118 114 119 93 70 62
29 13 284 31 40 3 7 320 305 323 333 325 296 199 234 321 306 307 301 240 317 340 321 282 236 305 306 293 43 12 13 16 332 269 251 255 74 340 106 107 106 88 86 81 70
5 270 304 74 49 345 321 321 271 323 351 347 302 343 342 320 318 304 319 315 346 348 304 328 322 325 340 344 285 354 336 323 298 244 220 104 130 7 65 58 57 83 66 48 31
52 7 324 14 82 116 317 296 316 322 307 327 287 329 336 322 322 292 312 311 326 328 325 350 252 190 284 279 288 305 302 308 282 290 337 31 88 35 28 22 40 30 31 29 13
45 303 169 304 325 315 267 249 304 336 303 315 312 337 311 304 313 323 322 319 320 324 313 106 282 299 294 294 293 293 285 286 283 285 24 67 67 15 14 17 13 8 3 6 22
80 45 328 257 268 286 297 273 327 319 141 291 318 316 314 276 292 310 316 311 304 310 332 267 276 313 306 300 331 314 8 36 36 19 51 50 56 3 349 4 14 10 4 1 356
282 285 190 260 278 57 264 285 311 311 299 311 296 310 309 310 308 292 285 274 254 280 291 233 318 321 287 323 308 48 12 33 47 35 22 34 346 346 354 357 355 356 359 343 325